Location: Carr Mill
(33.2054°N, 85.9439°W)
Time: 00:17:23
(UTC+00:00)

Meteor 2-16 Rocket - Pass Details

Date: 29 October 2020
Orbit: 941 x 956 km, 82.6° (Epoch: 28 November)

Event Time Altitude Azimuth Distance (km) Brightness Sun altitude
Rises 23:12:07 0° 358° (N) 3,611 7.4 -4.4°
Reaches altitude 10° 23:14:40 10° 2° (N) 2,664 6.7 -4.9°
Maximum altitude 23:20:40 60° 82° (E) 1,077 4.5 -6.1°
Drops below altitude 10° 23:26:39 10° 161° (SSE) 2,658 6.7 -7.4°
Sets 23:29:10 0° 165° (SSE) 3,601 7.4 -7.9°
